THORAD DELTA 1 DEB, 42614

Orbit data source: Space-Track

THORAD DELTA 1 DEB, 42614 is space debris in SSO originally from a launch on Fri, 15 Nov 1974 UTC launched from the Air Force Western Test Range (AFWTR). Debris objects in space refer to the collection of defunct objects orbiting the Earth. Examples of debris include non-operational satellites, rocket bodies, and fragments generated from explosions, collisions, or faulty payload assembly.

Loading next visibility...
Identifier
42614, 1974-089GF
Orbit
SSO
Country
Flag of USUS
Related business
Manufacturer
Unknown
Mission
Spacecraft
Bus & Motor
Unknown
Mass
Unknown
Launch date (UTC)
1974-11-15 (51 years ago)
Launch vehicle
Unknown
Launch site
Air Force Western Test Range (AFWTR)
Object type
Payload
Rocket body
Debris
Shape & HBR
Unknown shape, 0.1 m
Radar Cross Section
Small (<0.1 m²)

Expand to show TLE details & history
Last TLE update: 1 week ago

TLE from 1 week ago
0 THORAD DELTA 1 DEB
1 42614U 74089GF  26026.67318580  .00000472  00000-0  29867-2 0  9996
2 42614 101.8661 184.9518 0032983  88.3793 293.3079 12.59752712518166
Epoch: 2026-01-26T16:09Z
TLE epoch observation values (Epoch: 2026-01-26T16:09:23.253Z)
Latitude
20.87149°
Longitude
172.06689°
Altitude
1,416.126 km
Speed
7.159 km/s
True Right ascension
12h 01m 31s
True Declination
20° 46' 01"
Sunlit
Object was in full shadow at epoch
Visualization orbit readout
Latitude
Unknown
Longitude
Unknown
Altitude
Unknown
Speed
Unknown
Apparent Right ascension
Unknown
Apparent Declination
Unknown
Sunlit
N/A
Visualization observer readout
Local Sidereal Time
22:40:26
Azimuth
Unknown
Elevation
Unknown
Doppler factor
Unknown
Orbital elements
Apogee altitude
1,447.232 km
Perigee altitude
1,395.781 km
Semi-major axis
7,799.643 km
Eccentricity
0.0033
Inclination
101.8661°
RAAN
184.9518°
Arg. of periapsis
88.3793°
True anomaly
292.96022°
Mean anomaly
293.3079°
Eccentric anomaly
293.13412°
Mean motion
3.15087 °/min
Orbital period
114.25 mins
BSTAR
0.0029867
Loading maneuver chart data...
Computing Atmospheric mass density...
Loading historical data...
Loading historical data...
Loading historical data...
Loading historical data...
Loading historical data...
Loading historical data...
Loading historical data...

Documentation

Showing up to 5 results
|